CAO111 ZBAD-ZSPD

Flight info

Callsign CAO111
Flight time 1h 29m
Altitude 37100
Route ELKUR4K ELKUR W40 YQG W142 DALIM A593 DPX A470 DALNU W166 ZJ W167 SASAN R343 EKIMU
Aircraft B77L/H-SDE1E2E3FGHIJ2J3J4J5M1RWXY/LB1D1

Departure

Time 2026-05-06 12:00
Airport Beijing Daxing International Airport (ZBAD)

Arrival

Time 2026-05-06 13:30
Airport Shanghai Pudong International Airport (ZSPD)
Time Latitude Longitude Altitude Speed Heading
2026-05-06 11:34 39.52057 116.43001 97 ft 0 kts 13°
2026-05-06 11:52 39.52050 116.42999 97 ft 2 kts 13°
2026-05-06 11:52 39.52036 116.42993 97 ft 2 kts 22°
2026-05-06 11:52 39.52022 116.42986 97 ft 2 kts 29°
2026-05-06 11:52 39.52009 116.42975 97 ft 2 kts 36°
2026-05-06 11:53 39.51998 116.42963 97 ft 2 kts 43°
2026-05-06 11:53 39.51987 116.42949 97 ft 2 kts 51°
2026-05-06 11:53 39.51978 116.42934 97 ft 2 kts 58°
2026-05-06 11:53 39.51971 116.42917 97 ft 2 kts 65°
2026-05-06 11:54 39.51965 116.42899 97 ft 2 kts 72°
2026-05-06 11:54 39.51962 116.42880 97 ft 2 kts 80°
2026-05-06 11:54 39.51960 116.42870 97 ft 0 kts 83°
2026-05-06 11:56 39.51961 116.42879 97 ft 3 kts 83°
2026-05-06 11:57 39.51964 116.42929 97 ft 7 kts 92°
2026-05-06 11:57 39.51955 116.43017 97 ft 10 kts 104°
2026-05-06 11:57 39.51939 116.43107 97 ft 9 kts 104°
2026-05-06 11:57 39.51919 116.43183 97 ft 8 kts 139°
2026-05-06 11:58 39.51864 116.43192 97 ft 8 kts 188°
2026-05-06 11:58 39.51811 116.43181 97 ft 7 kts 188°
2026-05-06 11:58 39.51762 116.43169 97 ft 6 kts 191°
2026-05-06 11:58 39.51716 116.43156 97 ft 6 kts 192°
2026-05-06 11:59 39.51675 116.43160 97 ft 5 kts 146°
2026-05-06 11:59 39.51656 116.43203 97 ft 5 kts 108°
2026-05-06 11:59 39.51651 116.43232 97 ft 0 kts 103°
2026-05-06 12:00 39.51596 116.43533 97 ft 77 kts 104°
2026-05-06 12:00 39.51459 116.44285 97 ft 120 kts 102°
2026-05-06 12:00 39.51204 116.45700 399 ft 186 kts 104°
2026-05-06 12:00 39.50861 116.47410 1321 ft 216 kts 105°
2026-05-06 12:01 39.50478 116.49294 2598 ft 236 kts 98°
2026-05-06 12:01 39.50154 116.51468 3839 ft 261 kts 97°
2026-05-06 12:01 39.49769 116.53759 4627 ft 286 kts 99°
2026-05-06 12:01 39.49314 116.56318 4861 ft 287 kts 99°
2026-05-06 12:02 39.48847 116.58903 5194 ft 306 kts 99°
2026-05-06 12:02 39.48376 116.61486 6638 ft 296 kts 98°
2026-05-06 12:02 39.47919 116.64011 7851 ft 294 kts 99°
2026-05-06 12:02 39.47510 116.66645 8735 ft 302 kts 97°
2026-05-06 12:03 39.47136 116.69291 9691 ft 306 kts 98°
2026-05-06 12:03 39.46701 116.72023 10462 ft 318 kts 104°
2026-05-06 12:03 39.45921 116.74783 10941 ft 340 kts 116°
2026-05-06 12:03 39.44680 116.77476 11416 ft 361 kts 128°
2026-05-06 12:04 39.42943 116.79944 11885 ft 380 kts 141°
2026-05-06 12:04 39.40760 116.81950 12372 ft 395 kts 155°
2026-05-06 12:04 39.38231 116.83307 13216 ft 397 kts 168°
2026-05-06 12:04 39.35568 116.84196 14419 ft 395 kts 171°
2026-05-06 12:05 39.32937 116.85129 15518 ft 398 kts 169°
2026-05-06 12:05 39.30247 116.86197 16405 ft 407 kts 168°
2026-05-06 12:05 39.27551 116.87363 17335 ft 412 kts 167°
2026-05-06 12:05 39.24852 116.88592 18306 ft 416 kts 167°
2026-05-06 12:06 39.22142 116.89865 19086 ft 424 kts 166°
2026-05-06 12:06 39.19348 116.91209 19824 ft 432 kts 166°
2026-05-06 12:06 39.16549 116.92575 20609 ft 438 kts 166°
2026-05-06 12:06 39.13685 116.93985 21279 ft 446 kts 166°
2026-05-06 12:07 39.10754 116.95439 22042 ft 451 kts 166°
2026-05-06 12:07 39.07812 116.96904 22710 ft 457 kts 166°
2026-05-06 12:07 39.04845 116.98383 23273 ft 466 kts 166°
2026-05-06 12:07 39.01809 116.99902 24036 ft 469 kts 166°
2026-05-06 12:08 38.98775 117.01382 24822 ft 468 kts 169°
2026-05-06 12:08 38.95637 117.02399 25491 ft 464 kts 178°
2026-05-06 12:08 38.92471 117.02792 26150 ft 459 kts 187°
2026-05-06 12:08 38.89296 117.02571 26920 ft 452 kts 195°
2026-05-06 12:09 38.86269 117.01778 27758 ft 444 kts 203°
2026-05-06 12:09 38.83388 117.00452 28575 ft 438 kts 211°
2026-05-06 12:09 38.80695 116.98632 29288 ft 435 kts 218°
2026-05-06 12:09 38.78292 116.96393 30179 ft 427 kts 225°
2026-05-06 12:10 38.76215 116.93825 31224 ft 416 kts 233°
2026-05-06 12:10 38.74440 116.90965 32236 ft 406 kts 239°
2026-05-06 12:10 38.72995 116.87911 33211 ft 397 kts 244°
2026-05-06 12:10 38.71699 116.84843 34075 ft 393 kts 245°
2026-05-06 12:11 38.70412 116.81780 34845 ft 391 kts 245°
2026-05-06 12:11 38.69102 116.78706 35467 ft 392 kts 243°
2026-05-06 12:11 38.67578 116.75819 36127 ft 394 kts 237°
2026-05-06 12:11 38.65763 116.73162 36658 ft 400 kts 231°
2026-05-06 12:12 38.63684 116.70784 36971 ft 408 kts 225°
2026-05-06 12:12 38.61327 116.68696 36976 ft 415 kts 219°
2026-05-06 12:12 38.55933 116.65738 36975 ft 431 kts 205°
2026-05-06 12:13 38.49921 116.64610 36978 ft 446 kts 195°
2026-05-06 12:13 38.43735 116.64029 36969 ft 445 kts 195°
2026-05-06 12:14 38.37427 116.63369 36983 ft 462 kts 195°
2026-05-06 12:14 38.30928 116.62814 36974 ft 483 kts 189°
2026-05-06 12:15 38.27544 116.63223 36970 ft 496 kts 180°
2026-05-06 12:15 38.24116 116.64277 36979 ft 509 kts 174°
2026-05-06 12:15 38.17365 116.66811 36978 ft 509 kts 174°
2026-05-06 12:16 38.10556 116.69366 36982 ft 506 kts 174°
2026-05-06 12:16 38.03830 116.71939 36971 ft 506 kts 173°
2026-05-06 12:17 37.97096 116.74516 36974 ft 506 kts 173°
2026-05-06 12:17 37.90307 116.77103 36976 ft 507 kts 173°
2026-05-06 12:18 37.83535 116.79675 36976 ft 509 kts 173°
2026-05-06 12:18 37.76745 116.82248 36976 ft 510 kts 173°
2026-05-06 12:19 37.70013 116.84795 36979 ft 508 kts 173°
2026-05-06 12:19 37.63230 116.87352 36978 ft 510 kts 173°
2026-05-06 12:20 37.56467 116.89897 36981 ft 512 kts 173°
2026-05-06 12:20 37.49645 116.92462 36975 ft 510 kts 173°
2026-05-06 12:21 37.42864 116.95006 36975 ft 509 kts 173°
2026-05-06 12:21 37.36020 116.97565 36981 ft 514 kts 173°
2026-05-06 12:22 37.29219 117.00109 36975 ft 511 kts 173°
2026-05-06 12:22 37.22487 117.03165 36964 ft 518 kts 168°
2026-05-06 12:23 37.15719 117.06393 36966 ft 521 kts 168°
2026-05-06 12:23 37.08964 117.09587 36956 ft 514 kts 169°
2026-05-06 12:24 37.02232 117.12740 36951 ft 521 kts 168°
2026-05-06 12:24 36.95450 117.15906 36952 ft 521 kts 169°
2026-05-06 12:25 36.88658 117.19067 36947 ft 518 kts 168°
2026-05-06 12:25 36.85269 117.20488 36941 ft 507 kts 175°
2026-05-06 12:25 36.81877 117.21289 36944 ft 497 kts 184°
2026-05-06 12:26 36.75031 117.21503 36944 ft 489 kts 189°
2026-05-06 12:26 36.68272 117.21474 36947 ft 489 kts 189°
2026-05-06 12:27 36.61493 117.21435 36954 ft 488 kts 189°
2026-05-06 12:27 36.54704 117.21391 36958 ft 488 kts 188°
2026-05-06 12:28 36.47879 117.21346 36970 ft 487 kts 188°
2026-05-06 12:28 36.41046 117.21777 36964 ft 500 kts 178°
2026-05-06 12:29 36.34232 117.24079 36960 ft 514 kts 171°
2026-05-06 12:29 36.27446 117.26618 36953 ft 512 kts 171°
2026-05-06 12:30 36.20622 117.29162 36944 ft 511 kts 171°
2026-05-06 12:30 36.13847 117.31675 36939 ft 512 kts 171°
2026-05-06 12:31 36.07050 117.34193 36942 ft 509 kts 171°
2026-05-06 12:31 36.00243 117.36706 36939 ft 511 kts 171°
2026-05-06 12:32 35.93484 117.39234 36934 ft 506 kts 170°
2026-05-06 12:32 35.86720 117.41769 36948 ft 507 kts 170°
2026-05-06 12:33 35.79939 117.44302 36953 ft 512 kts 170°
2026-05-06 12:33 35.73154 117.46834 36953 ft 510 kts 170°
2026-05-06 12:34 35.66347 117.49368 36955 ft 509 kts 169°
2026-05-06 12:34 35.59580 117.51883 36961 ft 510 kts 169°
2026-05-06 12:35 35.52765 117.54411 36961 ft 510 kts 169°
2026-05-06 12:35 35.45945 117.56935 36964 ft 512 kts 169°
2026-05-06 12:36 35.39138 117.59451 36967 ft 513 kts 169°
2026-05-06 12:36 35.32332 117.61964 36971 ft 509 kts 169°
2026-05-06 12:37 35.25520 117.64471 36973 ft 513 kts 169°
2026-05-06 12:37 35.18692 117.66981 36959 ft 512 kts 170°
2026-05-06 12:38 35.11884 117.69480 36957 ft 513 kts 169°
2026-05-06 12:38 35.05067 117.71979 36944 ft 513 kts 169°
2026-05-06 12:39 34.98235 117.74482 36935 ft 512 kts 169°
2026-05-06 12:39 34.91437 117.76969 36930 ft 511 kts 169°
2026-05-06 12:40 34.84611 117.79461 36931 ft 514 kts 169°
2026-05-06 12:40 34.77774 117.81953 36935 ft 514 kts 169°
2026-05-06 12:41 34.70976 117.84399 36930 ft 513 kts 169°
2026-05-06 12:41 34.64148 117.86852 36926 ft 513 kts 169°
2026-05-06 12:42 34.57330 117.89298 36928 ft 510 kts 169°
2026-05-06 12:42 34.50458 117.91756 36926 ft 516 kts 169°
2026-05-06 12:43 34.43578 117.94217 36926 ft 519 kts 169°
2026-05-06 12:43 34.36660 117.96687 36930 ft 518 kts 169°
2026-05-06 12:44 34.29754 117.99149 36939 ft 518 kts 169°
2026-05-06 12:44 34.22830 118.01646 36942 ft 518 kts 168°
2026-05-06 12:45 34.15951 118.04157 36949 ft 518 kts 168°
2026-05-06 12:46 34.05649 118.07904 36947 ft 518 kts 168°
2026-05-06 12:46 33.98759 118.10407 36945 ft 517 kts 168°
2026-05-06 12:47 33.91888 118.12910 36947 ft 517 kts 168°
2026-05-06 12:47 33.84982 118.15423 36954 ft 519 kts 167°
2026-05-06 12:48 33.78437 118.19155 36953 ft 530 kts 151°
2026-05-06 12:48 33.72351 118.24168 36951 ft 532 kts 150°
2026-05-06 12:49 33.66264 118.29235 36957 ft 533 kts 149°
2026-05-06 12:49 33.60177 118.34290 36955 ft 532 kts 149°
2026-05-06 12:50 33.54113 118.39314 36959 ft 533 kts 149°
2026-05-06 12:50 33.48007 118.44363 36962 ft 533 kts 149°
2026-05-06 12:51 33.41912 118.49394 36969 ft 534 kts 149°
2026-05-06 12:51 33.35826 118.54408 36972 ft 535 kts 149°
2026-05-06 12:52 33.29712 118.59436 36975 ft 534 kts 149°
2026-05-06 12:52 33.23621 118.64436 36974 ft 533 kts 149°
2026-05-06 12:53 33.17523 118.69463 36971 ft 535 kts 149°
2026-05-06 12:53 33.11430 118.74526 36976 ft 535 kts 149°
2026-05-06 12:54 33.05353 118.79568 36981 ft 533 kts 149°
2026-05-06 12:54 32.99343 118.84547 36965 ft 516 kts 149°
2026-05-06 12:55 32.93510 118.89365 36888 ft 511 kts 149°
2026-05-06 12:55 32.90606 118.91763 36293 ft 509 kts 149°
2026-05-06 12:55 32.87693 118.94163 35561 ft 508 kts 149°
2026-05-06 12:55 32.84816 118.96532 34850 ft 507 kts 149°
2026-05-06 12:56 32.81923 118.98933 34503 ft 498 kts 148°
2026-05-06 12:56 32.79122 119.01263 34466 ft 484 kts 149°
2026-05-06 12:56 32.76423 119.03510 34398 ft 471 kts 149°
2026-05-06 12:56 32.73756 119.05724 33874 ft 467 kts 149°
2026-05-06 12:57 32.71107 119.07918 33253 ft 466 kts 149°
2026-05-06 12:57 32.68452 119.10117 32674 ft 464 kts 149°
2026-05-06 12:57 32.65826 119.12290 32111 ft 462 kts 149°
2026-05-06 12:57 32.63183 119.14476 31540 ft 460 kts 149°
2026-05-06 12:58 32.60585 119.16624 30977 ft 459 kts 149°
2026-05-06 12:58 32.57961 119.18791 30407 ft 457 kts 149°
2026-05-06 12:58 32.55365 119.20933 29845 ft 456 kts 149°
2026-05-06 12:58 32.52761 119.23080 29279 ft 454 kts 150°
2026-05-06 12:59 32.50202 119.25189 28736 ft 453 kts 149°
2026-05-06 12:59 32.47631 119.27306 28193 ft 452 kts 149°
2026-05-06 12:59 32.45034 119.29443 27642 ft 450 kts 149°
2026-05-06 12:59 32.42467 119.31554 27098 ft 449 kts 149°
2026-05-06 13:00 32.39911 119.33655 26553 ft 447 kts 149°
2026-05-06 13:00 32.37366 119.35745 26012 ft 445 kts 149°
2026-05-06 13:00 32.34840 119.37819 25472 ft 444 kts 149°
2026-05-06 13:00 32.32317 119.39887 24932 ft 442 kts 149°
2026-05-06 13:01 32.29786 119.41962 24545 ft 440 kts 149°
2026-05-06 13:01 32.27285 119.44009 24504 ft 444 kts 149°
2026-05-06 13:01 32.24712 119.46113 24501 ft 446 kts 149°
2026-05-06 13:01 32.22197 119.48171 24501 ft 444 kts 149°
2026-05-06 13:02 32.19637 119.50263 24507 ft 445 kts 149°
2026-05-06 13:02 32.17088 119.52344 24305 ft 447 kts 149°
2026-05-06 13:02 32.14539 119.54424 23994 ft 446 kts 149°
2026-05-06 13:02 32.12011 119.56487 23687 ft 444 kts 149°
2026-05-06 13:03 32.09443 119.58579 23377 ft 446 kts 149°
2026-05-06 13:03 32.06906 119.60645 23072 ft 446 kts 149°
2026-05-06 13:03 32.04335 119.62738 22762 ft 447 kts 149°
2026-05-06 13:03 32.01792 119.64806 22453 ft 447 kts 149°
2026-05-06 13:04 31.99222 119.66894 22094 ft 447 kts 149°
2026-05-06 13:04 31.96660 119.68988 21730 ft 448 kts 147°
2026-05-06 13:04 31.94304 119.71398 21360 ft 449 kts 137°
2026-05-06 13:04 31.92324 119.74233 20992 ft 448 kts 128°
2026-05-06 13:05 31.90584 119.77219 20674 ft 444 kts 127°
2026-05-06 13:05 31.88852 119.80239 20617 ft 445 kts 127°
2026-05-06 13:05 31.87131 119.83236 20610 ft 445 kts 127°
2026-05-06 13:05 31.85405 119.86240 20614 ft 445 kts 127°
2026-05-06 13:06 31.83659 119.89274 20612 ft 447 kts 127°
2026-05-06 13:06 31.81928 119.92281 20611 ft 446 kts 127°
2026-05-06 13:06 31.80176 119.95319 20613 ft 446 kts 127°
2026-05-06 13:06 31.78445 119.98319 20616 ft 446 kts 127°
2026-05-06 13:07 31.76692 120.01354 20619 ft 447 kts 127°
2026-05-06 13:07 31.74949 120.04369 20619 ft 448 kts 127°
2026-05-06 13:07 31.73180 120.07426 20626 ft 455 kts 127°
2026-05-06 13:07 31.71450 120.10417 20617 ft 437 kts 127°
2026-05-06 13:08 31.69770 120.13321 20615 ft 424 kts 127°
2026-05-06 13:08 31.68125 120.16157 20622 ft 424 kts 127°
2026-05-06 13:08 31.66463 120.19020 20627 ft 423 kts 127°
2026-05-06 13:08 31.64806 120.21870 20630 ft 424 kts 127°
2026-05-06 13:09 31.63146 120.24726 20629 ft 423 kts 127°
2026-05-06 13:09 31.61494 120.27567 20629 ft 423 kts 127°
2026-05-06 13:09 31.59834 120.30460 20628 ft 425 kts 124°
2026-05-06 13:09 31.58500 120.33566 20636 ft 429 kts 114°
2026-05-06 13:10 31.57492 120.36835 20638 ft 428 kts 111°
2026-05-06 13:10 31.56527 120.40117 20642 ft 429 kts 111°
2026-05-06 13:10 31.55550 120.43443 20643 ft 430 kts 110°
2026-05-06 13:10 31.54573 120.46761 20644 ft 429 kts 111°
2026-05-06 13:11 31.53604 120.50046 20645 ft 430 kts 110°
2026-05-06 13:11 31.52622 120.53370 20649 ft 431 kts 110°
2026-05-06 13:11 31.51655 120.56638 20644 ft 430 kts 110°
2026-05-06 13:11 31.50669 120.59968 20645 ft 430 kts 110°
2026-05-06 13:12 31.49688 120.63274 20647 ft 429 kts 111°
2026-05-06 13:12 31.48721 120.66531 20513 ft 425 kts 111°
2026-05-06 13:12 31.47751 120.69797 19960 ft 425 kts 111°
2026-05-06 13:12 31.46786 120.73038 19383 ft 425 kts 111°
2026-05-06 13:13 31.45809 120.76314 18824 ft 424 kts 111°
2026-05-06 13:13 31.44842 120.79555 18289 ft 423 kts 111°
2026-05-06 13:13 31.43855 120.82764 17750 ft 421 kts 112°
2026-05-06 13:13 31.42856 120.85970 17218 ft 420 kts 111°
2026-05-06 13:14 31.41856 120.89177 16684 ft 418 kts 111°
2026-05-06 13:14 31.40866 120.92354 16139 ft 417 kts 111°
2026-05-06 13:14 31.39882 120.95509 15730 ft 411 kts 111°
2026-05-06 13:14 31.38945 120.98577 15596 ft 392 kts 111°
2026-05-06 13:15 31.38029 121.01597 15666 ft 395 kts 111°
2026-05-06 13:15 31.37121 121.04582 15656 ft 391 kts 111°
2026-05-06 13:15 31.36212 121.07571 15436 ft 383 kts 111°
2026-05-06 13:15 31.35326 121.10475 14913 ft 383 kts 110°
2026-05-06 13:16 31.34446 121.13384 14423 ft 382 kts 110°
2026-05-06 13:16 31.33570 121.16309 13996 ft 379 kts 110°
2026-05-06 13:16 31.32706 121.19191 13602 ft 375 kts 110°
2026-05-06 13:16 31.31839 121.22079 13191 ft 371 kts 110°
2026-05-06 13:17 31.30987 121.24915 12757 ft 368 kts 110°
2026-05-06 13:17 31.30144 121.27714 12325 ft 365 kts 110°
2026-05-06 13:17 31.29310 121.30482 11983 ft 355 kts 110°
2026-05-06 13:17 31.28514 121.33123 11741 ft 337 kts 110°
2026-05-06 13:18 31.27752 121.35643 11391 ft 325 kts 110°
2026-05-06 13:18 31.27009 121.38090 11020 ft 315 kts 110°
2026-05-06 13:18 31.26286 121.40468 10706 ft 311 kts 110°
2026-05-06 13:18 31.25561 121.42853 10332 ft 310 kts 110°
2026-05-06 13:19 31.24843 121.45212 9960 ft 310 kts 109°
2026-05-06 13:19 31.24116 121.47600 9563 ft 310 kts 109°
2026-05-06 13:19 31.23398 121.49958 9128 ft 306 kts 110°
2026-05-06 13:19 31.22922 121.52326 8721 ft 299 kts 90°
2026-05-06 13:20 31.23182 121.54718 8143 ft 299 kts 76°
2026-05-06 13:20 31.23741 121.57049 7527 ft 300 kts 72°
2026-05-06 13:20 31.24690 121.59174 6859 ft 301 kts 48°
2026-05-06 13:20 31.26347 121.60652 6206 ft 300 kts 22°
2026-05-06 13:21 31.28352 121.61150 5556 ft 298 kts 356°
2026-05-06 13:21 31.30404 121.60731 5036 ft 299 kts 343°
2026-05-06 13:21 31.32366 121.60033 4894 ft 289 kts 341°
2026-05-06 13:21 31.34251 121.59316 4880 ft 275 kts 341°
2026-05-06 13:22 31.36035 121.58684 4869 ft 262 kts 350°
2026-05-06 13:22 31.37792 121.58809 4874 ft 247 kts 20°
2026-05-06 13:22 31.39264 121.59730 4891 ft 236 kts 34°
2026-05-06 13:22 31.40378 121.61074 4873 ft 225 kts 61°
2026-05-06 13:23 31.40984 121.62694 4874 ft 214 kts 73°
2026-05-06 13:23 31.41400 121.64464 4883 ft 229 kts 78°
2026-05-06 13:23 31.41587 121.66309 4874 ft 229 kts 99°
2026-05-06 13:23 31.41030 121.68037 4872 ft 227 kts 126°
2026-05-06 13:24 31.39870 121.69199 4870 ft 223 kts 157°
2026-05-06 13:24 31.38375 121.69810 4702 ft 228 kts 163°
2026-05-06 13:24 31.36872 121.70345 4407 ft 227 kts 164°
2026-05-06 13:24 31.35354 121.70888 4108 ft 227 kts 163°
2026-05-06 13:25 31.33861 121.71437 3816 ft 221 kts 163°
2026-05-06 13:25 31.32435 121.71968 3536 ft 209 kts 163°
2026-05-06 13:25 31.31122 121.72457 3276 ft 190 kts 163°
2026-05-06 13:25 31.29892 121.72916 3029 ft 177 kts 163°
2026-05-06 13:26 31.28768 121.73337 2803 ft 164 kts 163°
2026-05-06 13:26 31.27725 121.73730 2588 ft 152 kts 163°
2026-05-06 13:26 31.26759 121.74094 2392 ft 141 kts 162°
2026-05-06 13:26 31.25843 121.74438 2216 ft 134 kts 162°
2026-05-06 13:27 31.24963 121.74771 2031 ft 132 kts 162°
2026-05-06 13:27 31.24094 121.75100 1841 ft 131 kts 162°
2026-05-06 13:27 31.23227 121.75426 1660 ft 129 kts 161°
2026-05-06 13:27 31.22367 121.75750 1479 ft 130 kts 161°
2026-05-06 13:28 31.21495 121.76079 1294 ft 131 kts 161°
2026-05-06 13:28 31.20626 121.76405 1117 ft 132 kts 161°
2026-05-06 13:28 31.19815 121.76711 949 ft 132 kts 161°
2026-05-06 13:28 31.18935 121.77036 772 ft 129 kts 162°
2026-05-06 13:29 31.18089 121.77336 520 ft 131 kts 160°
2026-05-06 13:29 31.17203 121.77682 391 ft 137 kts 160°
2026-05-06 13:29 31.16297 121.78033 221 ft 135 kts 161°
2026-05-06 13:29 31.15416 121.78358 52 ft 131 kts 160°
2026-05-06 13:30 31.14638 121.78653 28 ft 94 kts 161°
2026-05-06 13:30 31.14196 121.78822 28 ft 27 kts 162°
2026-05-06 13:30 31.14127 121.78848 28 ft 9 kts 162°
2026-05-06 13:30 31.14047 121.78876 28 ft 14 kts 164°
2026-05-06 13:31 31.13939 121.78902 28 ft 15 kts 175°
2026-05-06 13:31 31.13834 121.78897 28 ft 14 kts 186°
2026-05-06 13:31 31.13753 121.78884 28 ft 7 kts 190°
2026-05-06 13:31 31.13702 121.78850 28 ft 9 kts 233°
2026-05-06 13:32 31.13675 121.78777 28 ft 9 kts 251°
2026-05-06 13:32 31.13644 121.78729 28 ft 0 kts 210°
2026-05-06 13:32 31.13621 121.78713 28 ft 5 kts 224°
2026-05-06 13:32 31.13597 121.78653 28 ft 8 kts 252°
2026-05-06 13:33 31.13587 121.78618 28 ft 2 kts 252°
2026-05-06 13:33 31.13582 121.78601 28 ft 1 kts 252°
2026-05-06 13:33 31.13582 121.78598 28 ft 0 kts 252°